Location: Bun
(42.9667°N, 0.1500°W)
Time: 03:49:01
(UTC+00:00)

Cosmos 2360 Rocket - Pass Details

Date: 03 February 2023
Orbit: 832 x 846 km, 71.0° (Epoch: 26 March)

Event Time Altitude Azimuth Distance (km) Brightness Sun altitude
Rises 18:00:56 0° 183° (S) 3,369 5.6 -8.7°
Reaches altitude 10° 18:03:27 10° 176° (S) 2,441 4.7 -9.2°
Maximum altitude 18:08:42 43° 107° (ESE) 1,166 2.6 -10.1°
Drops below altitude 10° 18:14:00 10° 37° (NE) 2,466 4.2 -11.0°
Enters shadow 18:15:28 - 33° (NNE) 3,003 4.6 -11.3°
